Wetterdaten: Woche 16.02.15 - 22.02.15 (KW8)
Datum Zeit Temp. Aussen +5cm Feuchte Auss Luftdruck Regen Sonnenschein Regendauer Solar Windben
16.02.2015 00:00 -0,3 C -1,9 C 91 % 1016,2 hPa 0,0 l/m 0,00 h 0,00 h 0 W/m 9,2 km/h (2 Bft)
16.02.2015 01:00 0,6 C -1,1 C 93 % 1016,6 hPa 0,0 l/m 0,00 h 0,00 h 0 W/m 11,2 km/h (2 Bft)
16.02.2015 02:00 0,6 C -1,1 C 90 % 1017,0 hPa 0,0 l/m 0,00 h 0,00 h 0 W/m 12,8 km/h (3 Bft)
16.02.2015 03:00 0,5 C -1,4 C 88 % 1017,2 hPa 0,0 l/m 0,00 h 0,00 h 0 W/m 11,7 km/h (2 Bft)
16.02.2015 04:00 0,2 C -1,6 C 88 % 1017,4 hPa 0,0 l/m 0,00 h 0,00 h 0 W/m 14,0 km/h (3 Bft)
16.02.2015 05:00 -0,0 C -1,7 C 90 % 1017,8 hPa 0,0 l/m 0,00 h 0,00 h 0 W/m 14,4 km/h (3 Bft)
16.02.2015 06:00 -0,1 C -1,7 C 91 % 1017,6 hPa 0,0 l/m 0,00 h 0,00 h 0 W/m 16,0 km/h (3 Bft)
16.02.2015 07:00 -0,3 C -1,7 C 92 % 1017,7 hPa 0,0 l/m 0,03 h 0,00 h 8 W/m 14,8 km/h (3 Bft)
16.02.2015 08:00 -0,3 C -1,4 C 92 % 1017,9 hPa 0,0 l/m 0,50 h 0,00 h 49 W/m 15,3 km/h (3 Bft)
16.02.2015 09:00 0,6 C -0,2 C 93 % 1018,1 hPa 0,0 l/m 1,00 h 0,00 h 168 W/m 19,6 km/h (3 Bft)
16.02.2015 10:00 2,3 C 1,5 C 89 % 1018,4 hPa 0,0 l/m 0,93 h 0,00 h 212 W/m 20,6 km/h (4 Bft)
16.02.2015 11:00 3,5 C 2,8 C 86 % 1018,7 hPa 0,0 l/m 1,00 h 0,00 h 330 W/m 22,4 km/h (4 Bft)
16.02.2015 12:00 5,4 C 4,2 C 80 % 1018,6 hPa 0,0 l/m 0,97 h 0,00 h 412 W/m 22,5 km/h (4 Bft)
16.02.2015 13:00 6,5 C 4,9 C 76 % 1018,3 hPa 0,0 l/m 1,00 h 0,00 h 399 W/m 20,9 km/h (4 Bft)
16.02.2015 14:00 7,1 C 5,5 C 74 % 1017,9 hPa 0,0 l/m 1,00 h 0,00 h 332 W/m 20,8 km/h (4 Bft)
16.02.2015 15:00 7,3 C 5,5 C 73 % 1017,6 hPa 0,0 l/m 1,00 h 0,00 h 225 W/m 16,4 km/h (3 Bft)
16.02.2015 16:00 6,8 C 4,4 C 74 % 1017,5 hPa 0,0 l/m 0,63 h 0,00 h 98 W/m 13,4 km/h (3 Bft)
16.02.2015 17:00 5,4 C 2,8 C 77 % 1018,2 hPa 0,0 l/m 0,07 h 0,00 h 21 W/m 9,9 km/h (2 Bft)
16.02.2015 18:00 4,1 C 1,2 C 80 % 1018,9 hPa 0,0 l/m 0,00 h 0,00 h 0 W/m 10,6 km/h (2 Bft)
16.02.2015 19:00 3,1 C 0,9 C 83 % 1019,4 hPa 0,0 l/m 0,00 h 0,00 h 0 W/m 14,8 km/h (3 Bft)
16.02.2015 20:00 2,2 C 0,3 C 86 % 1019,8 hPa 0,0 l/m 0,00 h 0,00 h 0 W/m 13,9 km/h (3 Bft)
16.02.2015 21:00 1,4 C -0,4 C 88 % 1020,5 hPa 0,0 l/m 0,00 h 0,00 h 0 W/m 13,1 km/h (3 Bft)
16.02.2015 22:00 0,8 C -1,0 C 89 % 1021,0 hPa 0,0 l/m 0,00 h 0,00 h 0 W/m 11,4 km/h (2 Bft)
16.02.2015 23:00 0,2 C -2,0 C 90 % 1021,4 hPa 0,0 l/m 0,00 h 0,00 h 0 W/m 7,6 km/h (2 Bft)
17.02.2015 00:00 -0,3 C -2,4 C 91 % 1022,0 hPa 0,0 l/m 0,00 h 0,00 h 0 W/m 6,5 km/h (2 Bft)
17.02.2015 01:00 -0,6 C -2,1 C 92 % 1022,5 hPa 0,0 l/m 0,00 h 0,00 h 0 W/m 6,4 km/h (2 Bft)
17.02.2015 02:00 -0,6 C -2,4 C 93 % 1023,3 hPa 0,0 l/m 0,00 h 0,00 h 0 W/m 5,8 km/h (2 Bft)
17.02.2015 03:00 -0,8 C -1,9 C 93 % 1024,1 hPa 0,0 l/m 0,00 h 0,00 h 0 W/m 6,6 km/h (2 Bft)
17.02.2015 04:00 -0,0 C -0,6 C 94 % 1025,0 hPa 0,0 l/m 0,00 h 0,00 h 0 W/m 9,2 km/h (2 Bft)
17.02.2015 05:00 0,3 C -0,6 C 95 % 1025,8 hPa 0,0 l/m 0,00 h 0,00 h 0 W/m 5,1 km/h (1 Bft)
17.02.2015 06:00 0,7 C 0,0 C 96 % 1026,6 hPa 0,0 l/m 0,00 h 0,00 h 0 W/m 6,4 km/h (2 Bft)
17.02.2015 07:00 1,2 C 0,6 C 96 % 1027,6 hPa 0,0 l/m 0,00 h 0,00 h 0 W/m 6,9 km/h (2 Bft)
17.02.2015 08:00 1,5 C 0,6 C 97 % 1028,7 hPa 0,0 l/m 0,00 h 0,00 h 11 W/m 7,9 km/h (2 Bft)
17.02.2015 09:00 1,8 C 1,2 C 97 % 1029,7 hPa 0,0 l/m 0,00 h 0,00 h 40 W/m 10,7 km/h (2 Bft)
17.02.2015 10:00 2,3 C 1,9 C 97 % 1030,9 hPa 0,0 l/m 0,00 h 0,00 h 67 W/m 10,0 km/h (2 Bft)
17.02.2015 11:00 3,0 C 2,6 C 97 % 1032,0 hPa 0,0 l/m 0,00 h 0,00 h 77 W/m 10,8 km/h (2 Bft)
17.02.2015 12:00 3,6 C 3,3 C 98 % 1032,4 hPa 0,0 l/m 0,00 h 0,00 h 85 W/m 10,3 km/h (2 Bft)
17.02.2015 13:00 4,0 C 3,4 C 98 % 1032,8 hPa 0,0 l/m 0,00 h 0,00 h 60 W/m 10,7 km/h (2 Bft)
17.02.2015 14:00 4,3 C 3,5 C 97 % 1033,3 hPa 0,0 l/m 0,00 h 0,00 h 42 W/m 9,0 km/h (2 Bft)
17.02.2015 15:00 4,5 C 3,3 C 97 % 1033,9 hPa 0,2 l/m 0,00 h 0,00 h 25 W/m 6,1 km/h (2 Bft)
17.02.2015 16:00 4,6 C 3,8 C 97 % 1034,6 hPa 0,0 l/m 0,00 h 0,00 h 24 W/m 4,6 km/h (1 Bft)
17.02.2015 17:00 4,8 C 3,4 C 97 % 1035,6 hPa 0,0 l/m 0,00 h 0,00 h 7 W/m 3,4 km/h (1 Bft)
17.02.2015 18:00 4,8 C 3,0 C 97 % 1036,8 hPa 0,0 l/m 0,00 h 0,00 h 0 W/m 1,4 km/h (1 Bft)
17.02.2015 19:00 4,6 C 2,8 C 97 % 1037,7 hPa 0,0 l/m 0,00 h 0,00 h 0 W/m 0,5 km/h (0 Bft)
17.02.2015 20:00 4,4 C 2,8 C 97 % 1038,3 hPa 0,0 l/m 0,00 h 0,00 h 0 W/m 3,5 km/h (1 Bft)
17.02.2015 21:00 4,5 C 2,8 C 97 % 1039,1 hPa 0,0 l/m 0,00 h 0,00 h 0 W/m 7,8 km/h (2 Bft)
17.02.2015 22:00 3,7 C 0,5 C 96 % 1039,7 hPa 0,0 l/m 0,00 h 0,00 h 0 W/m 5,9 km/h (2 Bft)
17.02.2015 23:00 2,0 C -1,1 C 95 % 1040,1 hPa 0,0 l/m 0,00 h 0,00 h 0 W/m 2,9 km/h (1 Bft)
18.02.2015 00:00 0,7 C -2,0 C 95 % 1040,3 hPa 0,0 l/m 0,00 h 0,00 h 0 W/m 2,5 km/h (1 Bft)
18.02.2015 01:00 -0,2 C -2,6 C 95 % 1040,0 hPa 0,0 l/m 0,00 h 0,00 h 0 W/m 2,5 km/h (1 Bft)
18.02.2015 02:00 -1,0 C -3,0 C 95 % 1040,2 hPa 0,0 l/m 0,00 h 0,00 h 0 W/m 1,8 km/h (1 Bft)
18.02.2015 03:00 -1,1 C -1,4 C 95 % 1040,3 hPa 0,0 l/m 0,00 h 0,00 h 0 W/m 2,2 km/h (1 Bft)
18.02.2015 04:00 -0,1 C -0,6 C 96 % 1040,2 hPa 0,0 l/m 0,00 h 0,00 h 0 W/m 1,7 km/h (1 Bft)
18.02.2015 05:00 0,4 C -0,1 C 96 % 1040,3 hPa 0,0 l/m 0,00 h 0,00 h 0 W/m 2,5 km/h (1 Bft)
18.02.2015 06:00 1,0 C 0,3 C 97 % 1040,7 hPa 0,0 l/m 0,00 h 0,00 h 0 W/m 4,9 km/h (1 Bft)
18.02.2015 07:00 1,0 C 0,0 C 97 % 1040,9 hPa 0,0 l/m 0,00 h 0,00 h 5 W/m 5,8 km/h (2 Bft)
18.02.2015 08:00 0,8 C 0,0 C 97 % 1041,2 hPa 0,0 l/m 0,00 h 0,00 h 16 W/m 6,7 km/h (2 Bft)
18.02.2015 09:00 1,0 C 0,7 C 97 % 1041,2 hPa 0,0 l/m 0,00 h 0,00 h 48 W/m 8,0 km/h (2 Bft)
18.02.2015 10:00 1,5 C 1,3 C 97 % 1041,1 hPa 0,0 l/m 0,00 h 0,00 h 83 W/m 8,0 km/h (2 Bft)
18.02.2015 11:00 1,8 C 1,8 C 98 % 1040,5 hPa 0,0 l/m 0,00 h 0,00 h 100 W/m 12,6 km/h (3 Bft)
18.02.2015 12:00 2,6 C 2,7 C 98 % 1039,9 hPa 0,0 l/m 0,00 h 0,00 h 102 W/m 12,1 km/h (2 Bft)
18.02.2015 13:00 3,4 C 4,1 C 98 % 1039,3 hPa 0,0 l/m 0,00 h 0,00 h 138 W/m 11,3 km/h (2 Bft)
18.02.2015 14:00 4,8 C 6,1 C 98 % 1038,6 hPa 0,0 l/m 0,80 h 0,00 h 270 W/m 8,1 km/h (2 Bft)
18.02.2015 15:00 6,3 C 6,3 C 95 % 1037,7 hPa 0,0 l/m 0,30 h 0,00 h 154 W/m 12,0 km/h (2 Bft)
18.02.2015 16:00 6,2 C 5,2 C 85 % 1037,2 hPa 0,0 l/m 0,00 h 0,00 h 61 W/m 13,9 km/h (3 Bft)
18.02.2015 17:00 5,5 C 3,3 C 84 % 1036,8 hPa 0,0 l/m 0,57 h 0,00 h 31 W/m 9,2 km/h (2 Bft)
18.02.2015 18:00 4,4 C 1,0 C 85 % 1036,5 hPa 0,0 l/m 0,00 h 0,00 h 5 W/m 6,2 km/h (2 Bft)
18.02.2015 19:00 3,1 C -0,3 C 88 % 1036,2 hPa 0,0 l/m 0,00 h 0,00 h 0 W/m 5,7 km/h (1 Bft)
18.02.2015 20:00 2,1 C -0,6 C 90 % 1035,7 hPa 0,0 l/m 0,00 h 0,00 h 0 W/m 7,4 km/h (2 Bft)
18.02.2015 21:00 1,5 C -1,0 C 91 % 1035,4 hPa 0,0 l/m 0,00 h 0,00 h 0 W/m 7,1 km/h (2 Bft)
18.02.2015 22:00 1,0 C -1,8 C 92 % 1035,0 hPa 0,0 l/m 0,00 h 0,00 h 0 W/m 4,8 km/h (1 Bft)
18.02.2015 23:00 0,4 C -2,2 C 93 % 1034,3 hPa 0,0 l/m 0,00 h 0,00 h 0 W/m 6,2 km/h (2 Bft)
19.02.2015 00:00 -0,0 C -2,2 C 93 % 1034,0 hPa 0,0 l/m 0,00 h 0,00 h 0 W/m 7,4 km/h (2 Bft)
19.02.2015 01:00 -0,2 C -2,4 C 94 % 1033,6 hPa 0,0 l/m 0,00 h 0,00 h 0 W/m 6,7 km/h (2 Bft)
19.02.2015 02:00 -0,5 C -2,8 C 95 % 1033,1 hPa 0,0 l/m 0,00 h 0,00 h 0 W/m 7,1 km/h (2 Bft)
19.02.2015 03:00 -0,7 C -2,6 C 95 % 1032,8 hPa 0,0 l/m 0,00 h 0,00 h 0 W/m 7,8 km/h (2 Bft)
19.02.2015 04:00 -1,0 C -2,8 C 95 % 1032,1 hPa 0,0 l/m 0,00 h 0,00 h 0 W/m 8,1 km/h (2 Bft)
19.02.2015 05:00 -1,1 C -2,8 C 96 % 1031,6 hPa 0,0 l/m 0,00 h 0,00 h 0 W/m 8,6 km/h (2 Bft)
19.02.2015 06:00 -1,4 C -2,8 C 96 % 1031,0 hPa 0,0 l/m 0,00 h 0,00 h 0 W/m 8,9 km/h (2 Bft)
19.02.2015 07:00 -1,1 C -2,5 C 96 % 1030,7 hPa 0,0 l/m 0,13 h 0,00 h 10 W/m 11,5 km/h (2 Bft)
19.02.2015 08:00 -0,4 C -1,6 C 97 % 1030,7 hPa 0,0 l/m 0,07 h 0,00 h 40 W/m 10,2 km/h (2 Bft)
19.02.2015 09:00 0,0 C -0,2 C 97 % 1030,4 hPa 0,2 l/m 0,00 h 0,00 h 81 W/m 11,6 km/h (2 Bft)
19.02.2015 10:00 1,0 C 1,3 C 97 % 1030,0 hPa 0,0 l/m 0,00 h 0,00 h 106 W/m 12,3 km/h (3 Bft)
19.02.2015 11:00 2,1 C 2,9 C 96 % 1029,2 hPa 0,0 l/m 0,13 h 0,00 h 189 W/m 18,3 km/h (3 Bft)
19.02.2015 12:00 4,1 C 4,2 C 88 % 1028,1 hPa 0,0 l/m 0,97 h 0,00 h 380 W/m 20,5 km/h (4 Bft)
19.02.2015 13:00 5,5 C 4,6 C 79 % 1026,8 hPa 0,0 l/m 0,92 h 0,00 h 370 W/m 24,7 km/h (4 Bft)
19.02.2015 14:00 6,9 C 5,6 C 75 % 1025,6 hPa 0,0 l/m 0,95 h 0,00 h 359 W/m 24,0 km/h (4 Bft)
19.02.2015 15:00 7,7 C 6,2 C 73 % 1024,9 hPa 0,0 l/m 0,97 h 0,00 h 244 W/m 19,4 km/h (3 Bft)
19.02.2015 16:00 7,5 C 5,6 C 72 % 1024,3 hPa 0,0 l/m 0,83 h 0,00 h 119 W/m 14,4 km/h (3 Bft)
19.02.2015 17:00 6,3 C 3,9 C 74 % 1023,7 hPa 0,0 l/m 0,33 h 0,00 h 29 W/m 14,8 km/h (3 Bft)
19.02.2015 18:00 4,9 C 2,6 C 78 % 1023,4 hPa 0,0 l/m 0,00 h 0,00 h 5 W/m 14,2 km/h (3 Bft)
19.02.2015 19:00 3,8 C 1,8 C 81 % 1023,0 hPa 0,0 l/m 0,00 h 0,00 h 0 W/m 16,0 km/h (3 Bft)
19.02.2015 20:00 2,9 C 0,8 C 83 % 1023,0 hPa 0,0 l/m 0,00 h 0,00 h 0 W/m 12,6 km/h (3 Bft)
19.02.2015 21:00 2,0 C 0,3 C 84 % 1022,9 hPa 0,0 l/m 0,00 h 0,00 h 0 W/m 12,8 km/h (3 Bft)
19.02.2015 22:00 1,6 C 0,6 C 86 % 1021,6 hPa 0,0 l/m 0,00 h 0,00 h 0 W/m 15,5 km/h (3 Bft)
19.02.2015 23:00 1,5 C 0,6 C 87 % 1020,6 hPa 0,0 l/m 0,00 h 0,00 h 0 W/m 16,5 km/h (3 Bft)
20.02.2015 00:00 1,4 C 0,6 C 88 % 1019,5 hPa 0,0 l/m 0,00 h 0,00 h 0 W/m 15,9 km/h (3 Bft)
20.02.2015 01:00 1,6 C 0,8 C 88 % 1018,7 hPa 0,0 l/m 0,00 h 0,00 h 0 W/m 15,5 km/h (3 Bft)
20.02.2015 02:00 2,0 C 1,1 C 88 % 1017,7 hPa 0,0 l/m 0,00 h 0,00 h 0 W/m 15,8 km/h (3 Bft)
20.02.2015 03:00 2,7 C 1,7 C 87 % 1016,4 hPa 0,0 l/m 0,00 h 0,00 h 0 W/m 19,6 km/h (3 Bft)
20.02.2015 04:00 3,5 C 2,2 C 83 % 1015,2 hPa 0,0 l/m 0,00 h 0,00 h 0 W/m 23,6 km/h (4 Bft)
20.02.2015 05:00 3,4 C 2,1 C 83 % 1014,2 hPa 0,0 l/m 0,00 h 0,00 h 0 W/m 18,0 km/h (3 Bft)
20.02.2015 06:00 4,0 C 3,0 C 83 % 1013,3 hPa 0,0 l/m 0,00 h 0,00 h 0 W/m 20,8 km/h (4 Bft)
20.02.2015 07:00 5,0 C 3,5 C 82 % 1012,8 hPa 0,0 l/m 0,00 h 0,17 h 4 W/m 22,3 km/h (4 Bft)
20.02.2015 08:00 5,1 C 3,0 C 86 % 1012,6 hPa 0,2 l/m 0,00 h 0,77 h 14 W/m 20,4 km/h (4 Bft)
20.02.2015 09:00 5,4 C 3,8 C 89 % 1011,9 hPa 0,0 l/m 0,07 h 0,10 h 66 W/m 23,3 km/h (4 Bft)
20.02.2015 10:00 6,1 C 4,8 C 87 % 1011,5 hPa 0,0 l/m 0,00 h 0,00 h 69 W/m 21,8 km/h (4 Bft)
20.02.2015 11:00 6,7 C 5,8 C 86 % 1010,9 hPa 0,0 l/m 0,00 h 0,00 h 79 W/m 22,8 km/h (4 Bft)
20.02.2015 12:00 7,2 C 6,0 C 87 % 1009,8 hPa 0,0 l/m 0,00 h 0,13 h 106 W/m 21,1 km/h (4 Bft)
20.02.2015 13:00 7,3 C 6,0 C 87 % 1008,8 hPa 0,0 l/m 0,00 h 0,03 h 67 W/m 21,7 km/h (4 Bft)
20.02.2015 14:00 7,0 C 5,5 C 90 % 1007,6 hPa 0,0 l/m 0,00 h 0,37 h 75 W/m 17,6 km/h (3 Bft)
20.02.2015 15:00 7,3 C 5,3 C 90 % 1006,6 hPa 0,8 l/m 0,00 h 1,00 h 47 W/m 21,9 km/h (4 Bft)
20.02.2015 16:00 6,8 C 5,0 C 92 % 1006,0 hPa 1,2 l/m 0,00 h 1,00 h 24 W/m 16,6 km/h (3 Bft)
20.02.2015 17:00 6,5 C 4,7 C 94 % 1004,9 hPa 0,6 l/m 0,00 h 1,00 h 12 W/m 14,2 km/h (3 Bft)
20.02.2015 18:00 6,4 C 4,4 C 95 % 1004,1 hPa 0,6 l/m 0,00 h 0,97 h 0 W/m 16,7 km/h (3 Bft)
20.02.2015 19:00 6,3 C 4,4 C 95 % 1003,1 hPa 0,6 l/m 0,00 h 0,90 h 0 W/m 14,2 km/h (3 Bft)
20.02.2015 20:00 6,3 C 4,4 C 95 % 1002,0 hPa 0,4 l/m 0,00 h 1,00 h 0 W/m 18,2 km/h (3 Bft)
20.02.2015 21:00 6,3 C 4,4 C 94 % 1000,9 hPa 0,4 l/m 0,00 h 0,93 h 0 W/m 21,7 km/h (4 Bft)
20.02.2015 22:00 6,2 C 4,1 C 93 % 999,8 hPa 0,4 l/m 0,00 h 0,97 h 0 W/m 23,4 km/h (4 Bft)
20.02.2015 23:00 6,1 C 3,9 C 93 % 998,6 hPa 0,2 l/m 0,00 h 0,77 h 0 W/m 24,3 km/h (4 Bft)
21.02.2015 00:00 6,0 C 3,9 C 93 % 997,3 hPa 0,2 l/m 0,00 h 0,73 h 0 W/m 21,6 km/h (4 Bft)
21.02.2015 01:00 5,9 C 3,9 C 93 % 996,2 hPa 0,8 l/m 0,00 h 1,00 h 0 W/m 18,2 km/h (3 Bft)
21.02.2015 02:00 5,8 C 3,9 C 94 % 995,2 hPa 0,8 l/m 0,00 h 1,00 h 0 W/m 20,7 km/h (4 Bft)
21.02.2015 03:00 5,7 C 3,9 C 94 % 994,0 hPa 0,2 l/m 0,00 h 0,23 h 0 W/m 21,6 km/h (4 Bft)
21.02.2015 04:00 5,8 C 3,9 C 94 % 993,6 hPa 0,0 l/m 0,00 h 0,00 h 0 W/m 26,8 km/h (4 Bft)
21.02.2015 05:00 4,6 C 2,6 C 92 % 994,5 hPa 0,4 l/m 0,00 h 0,77 h 0 W/m 29,0 km/h (5 Bft)
21.02.2015 06:00 3,0 C 1,7 C 94 % 995,8 hPa 0,2 l/m 0,00 h 0,63 h 0 W/m 22,5 km/h (4 Bft)
21.02.2015 07:00 2,6 C 1,2 C 95 % 996,3 hPa 0,0 l/m 0,00 h 0,00 h 5 W/m 14,6 km/h (3 Bft)
21.02.2015 08:00 2,7 C 2,0 C 96 % 996,9 hPa 0,0 l/m 0,00 h 0,00 h 33 W/m 17,6 km/h (3 Bft)
21.02.2015 09:00 3,3 C 2,7 C 96 % 997,6 hPa 0,0 l/m 0,30 h 0,00 h 123 W/m 20,5 km/h (4 Bft)
21.02.2015 10:00 4,0 C 3,6 C 96 % 998,1 hPa 0,0 l/m 0,17 h 0,00 h 126 W/m 19,0 km/h (3 Bft)
21.02.2015 11:00 4,6 C 3,9 C 94 % 998,4 hPa 0,0 l/m 0,10 h 0,07 h 150 W/m 18,7 km/h (3 Bft)
21.02.2015 12:00 5,8 C 5,0 C 87 % 998,5 hPa 0,2 l/m 0,53 h 0,20 h 283 W/m 26,1 km/h (4 Bft)
21.02.2015 13:00 3,8 C 2,1 C 89 % 998,4 hPa 1,4 l/m 0,13 h 0,83 h 128 W/m 15,1 km/h (3 Bft)
21.02.2015 14:00 4,9 C 3,9 C 93 % 998,5 hPa 0,0 l/m 0,40 h 0,03 h 218 W/m 15,3 km/h (3 Bft)
21.02.2015 15:00 5,3 C 3,3 C 87 % 999,1 hPa 0,0 l/m 0,00 h 0,00 h 77 W/m 19,9 km/h (4 Bft)
21.02.2015 16:00 3,8 C 2,4 C 90 % 999,4 hPa 0,0 l/m 0,00 h 0,37 h 62 W/m 10,3 km/h (2 Bft)
21.02.2015 17:00 3,5 C 2,0 C 92 % 999,9 hPa 0,0 l/m 0,00 h 0,00 h 17 W/m 8,8 km/h (2 Bft)
21.02.2015 18:00 3,1 C 1,6 C 93 % 1000,6 hPa 0,0 l/m 0,00 h 0,00 h 3 W/m 9,5 km/h (2 Bft)
21.02.2015 19:00 2,9 C 1,7 C 93 % 1001,2 hPa 0,0 l/m 0,00 h 0,00 h 0 W/m 6,8 km/h (2 Bft)
21.02.2015 20:00 2,9 C 1,7 C 94 % 1001,8 hPa 0,0 l/m 0,00 h 0,00 h 0 W/m 9,9 km/h (2 Bft)
21.02.2015 21:00 2,8 C 1,7 C 94 % 1002,4 hPa 0,0 l/m 0,00 h 0,00 h 0 W/m 8,3 km/h (2 Bft)
21.02.2015 22:00 2,7 C 1,7 C 94 % 1002,9 hPa 0,0 l/m 0,00 h 0,00 h 0 W/m 10,6 km/h (2 Bft)
21.02.2015 23:00 2,6 C 1,2 C 95 % 1003,5 hPa 0,0 l/m 0,00 h 0,00 h 0 W/m 10,3 km/h (2 Bft)
22.02.2015 00:00 2,3 C 0,8 C 95 % 1004,1 hPa 0,0 l/m 0,00 h 0,00 h 0 W/m 10,9 km/h (2 Bft)
22.02.2015 01:00 1,7 C -0,2 C 95 % 1004,4 hPa 0,0 l/m 0,00 h 0,00 h 0 W/m 8,9 km/h (2 Bft)
22.02.2015 02:00 0,9 C -1,2 C 95 % 1005,1 hPa 0,0 l/m 0,00 h 0,00 h 0 W/m 5,2 km/h (1 Bft)
22.02.2015 03:00 0,4 C -0,9 C 95 % 1006,0 hPa 0,0 l/m 0,00 h 0,00 h 0 W/m 8,7 km/h (2 Bft)
22.02.2015 04:00 0,8 C 0,0 C 96 % 1006,5 hPa 0,0 l/m 0,00 h 0,00 h 0 W/m 13,2 km/h (3 Bft)
22.02.2015 05:00 0,6 C -0,0 C 96 % 1007,6 hPa 0,0 l/m 0,00 h 0,00 h 0 W/m 9,8 km/h (2 Bft)
22.02.2015 06:00 0,7 C 0,0 C 97 % 1008,0 hPa 0,2 l/m 0,00 h 0,00 h 0 W/m 11,8 km/h (2 Bft)
22.02.2015 07:00 0,8 C 0,0 C 97 % 1008,6 hPa 0,0 l/m 0,00 h 0,00 h 7 W/m 9,9 km/h (2 Bft)
22.02.2015 08:00 0,9 C 0,3 C 97 % 1009,5 hPa 0,0 l/m 0,00 h 0,00 h 31 W/m 11,6 km/h (2 Bft)
22.02.2015 09:00 1,4 C 1,3 C 98 % 1010,0 hPa 0,0 l/m 0,13 h 0,00 h 90 W/m 11,0 km/h (2 Bft)
22.02.2015 10:00 1,8 C 1,5 C 98 % 1010,6 hPa 0,0 l/m 0,00 h 0,00 h 95 W/m 15,8 km/h (3 Bft)
22.02.2015 11:00 2,7 C 2,9 C 98 % 1010,8 hPa 0,0 l/m 0,17 h 0,00 h 183 W/m 16,6 km/h (3 Bft)
22.02.2015 12:00 4,0 C 4,0 C 96 % 1010,6 hPa 0,0 l/m 0,60 h 0,00 h 264 W/m 17,8 km/h (3 Bft)
22.02.2015 13:00 5,5 C 4,9 C 86 % 1010,1 hPa 0,0 l/m 0,73 h 0,00 h 327 W/m 19,2 km/h (3 Bft)
22.02.2015 14:00 6,5 C 5,5 C 77 % 1009,4 hPa 0,0 l/m 0,70 h 0,00 h 337 W/m 19,1 km/h (3 Bft)
22.02.2015 15:00 7,3 C 5,4 C 71 % 1009,0 hPa 0,0 l/m 1,00 h 0,00 h 306 W/m 20,1 km/h (4 Bft)
22.02.2015 16:00 6,9 C 4,6 C 69 % 1008,4 hPa 0,0 l/m 0,60 h 0,00 h 127 W/m 18,5 km/h (3 Bft)
22.02.2015 17:00 5,4 C 3,1 C 73 % 1007,8 hPa 0,0 l/m 0,07 h 0,00 h 22 W/m 15,3 km/h (3 Bft)
22.02.2015 18:00 4,3 C 2,0 C 78 % 1007,1 hPa 0,0 l/m 0,00 h 0,00 h 4 W/m 17,0 km/h (3 Bft)
22.02.2015 19:00 3,8 C 2,0 C 81 % 1006,6 hPa 0,0 l/m 0,00 h 0,00 h 0 W/m 24,9 km/h (4 Bft)
22.02.2015 20:00 3,3 C 1,6 C 81 % 1005,8 hPa 0,0 l/m 0,00 h 0,00 h 0 W/m 25,3 km/h (4 Bft)
22.02.2015 21:00 2,9 C 1,1 C 79 % 1004,7 hPa 0,0 l/m 0,00 h 0,00 h 0 W/m 26,0 km/h (4 Bft)
22.02.2015 22:00 2,8 C 1,7 C 78 % 1003,3 hPa 0,0 l/m 0,00 h 0,00 h 0 W/m 25,6 km/h (4 Bft)
22.02.2015 23:00 3,4 C 2,1 C 74 % 1002,1 hPa 0,0 l/m 0,00 h 0,00 h 0 W/m 25,5 km/h (4 Bft)
Min-Datum _ 18.02.15 18.02.15 22.02.15 21.02.15 - - - - 17.02.15
_ Min-Zeit 03:04 02:16 16:08 04:06 - - - - 17:08
Minimum _ -1,5 C -3,3 C 68 % 993,5 hPa - - - - 0,0 km/h (0 Bft)
Max-Datum _ 19.02.15 18.02.15 18.02.15 18.02.15 21.02.15 16.02.15 20.02.15 22.02.15 21.02.15
_ Max-Zeit 15:32 15:16 14:24 08:34 13:08 07:58 07:46 13:12 05:10
Maximum _ 7,8 C 7,2 C 99 % 1041,3 hPa 1,4 l/m 0,03 h 0,03 h 622 W/m 48,1 km/h
W-NW (6 Bft)
Durchschnitt _ 3,0 C 1,7 C 90 % 1018,8 hPa #10,2 l/m #20:48 h #16:02 h 115 W/m 13,5 km/h (3 Bft)
© 2015 W. Hausmann